Location: Unspecified
(0.0000°N, 0.0000°E)
Time: 23:19:26
(UTC+00:00)

S-56A Canister/Altair - Pass Details

Date: 10 October 2020
Orbit: 633 x 2499 km, 38.9° (Epoch: 28 October)

Event Time Altitude Azimuth Distance (km) Brightness Sun altitude
Rises 19:13:51 0° 311° (NW) 5,868 12.6 -21.6°
Reaches altitude 10° 19:18:02 10° 311° (NW) 4,662 12.0 -22.6°
Maximum altitude 19:30:27 86° 223° (SW) 1,613 9.0 -25.7°
Enters shadow 19:35:13 32° 135° (SE) 2,185 9.5 -26.9°
Drops below altitude 10° 19:38:32 10° 133° (SE) 3,145 - -27.7°
Sets 19:40:51 0° 133° (SE) 3,905 - -28.3°
